• Em Portugal
  • Lista de países
  • Para 7 dias
  • Temperatura da água
  • Mapas de satélite
  • Mapa do tempo
  • Widgets de tempo
  • user-avatar
    Iniciar Sessão

    Previsão horária em Darkhan

    Hoje, 17 Dezembro, Domingo

    Tempo Temperatura Precipitação Vento Pressão Humidade
    00:00 -16°C° 0 mm 2 m/s 691 mmHg 81%
    01:00 -16°C° 0 mm 2 m/s 691 mmHg 81%
    02:00 -16°C° 0 mm 2 m/s 691 mmHg 81%
    03:00 -16°C° 0 mm 2 m/s 690 mmHg 81%
    04:00 -16°C° 0 mm 2 m/s 690 mmHg 81%
    05:00 -16°C° 0 mm 2 m/s 690 mmHg 82%
    06:00 -15°C° 0 mm 2 m/s 690 mmHg 82%
    07:00 -15°C° 0 mm 2 m/s 690 mmHg 84%
    08:00 -14°C° 0 mm 2 m/s 690 mmHg 83%
    09:00 -13°C° 0 mm 2 m/s 690 mmHg 83%
    10:00 -13°C° 0 mm 2 m/s 690 mmHg 82%
    11:00 -12°C° 0 mm 2 m/s 691 mmHg 80%
    12:00 -12°C° 0 mm 3 m/s 691 mmHg 78%
    13:00 -10°C° 0 mm 3 m/s 692 mmHg 77%
    14:00 -10°C° 0 mm 2 m/s 692 mmHg 77%
    15:00 -12°C° 0 mm 2 m/s 692 mmHg 78%
    16:00 -13°C° 0 mm 2 m/s 693 mmHg 78%
    17:00 -14°C° 0 mm 2 m/s 693 mmHg 79%
    18:00 -13°C° 0 mm 1 m/s 694 mmHg 80%
    19:00 -14°C° 0 mm 1 m/s 694 mmHg 81%
    20:00 -14°C° 0 mm 1 m/s 695 mmHg 81%
    21:00 -14°C° 0 mm 1 m/s 695 mmHg 81%
    22:00 -16°C° 0 mm 2 m/s 695 mmHg 81%
    23:00 -16°C° 0 mm 2 m/s 695 mmHg 81%

    Amanhã, 18 Dezembro, Segunda-feira

    Tempo Temperatura Precipitação Vento Pressão Humidade
    00:00 -16°C° 0 mm 2 m/s 695 mmHg 80%
    01:00 -16°C° 0 mm 2 m/s 695 mmHg 80%
    02:00 -16°C° 0 mm 2 m/s 695 mmHg 80%
    03:00 -16°C° 0 mm 2 m/s 695 mmHg 80%
    04:00 -16°C° 0 mm 2 m/s 695 mmHg 81%
    05:00 -16°C° 0 mm 2 m/s 695 mmHg 81%
    06:00 -17°C° 0 mm 2 m/s 695 mmHg 81%
    07:00 -17°C° 0 mm 2 m/s 696 mmHg 82%
    08:00 -16°C° 0 mm 2 m/s 696 mmHg 81%
    09:00 -16°C° 0 mm 2 m/s 696 mmHg 80%
    10:00 -15°C° 0 mm 2 m/s 696 mmHg 80%
    11:00 -14°C° 0 mm 2 m/s 696 mmHg 79%
    12:00 -13°C° 0 mm 2 m/s 695 mmHg 78%
    13:00 -13°C° 0 mm 2 m/s 695 mmHg 78%
    14:00 -13°C° 0 mm 2 m/s 694 mmHg 79%
    15:00 -14°C° 0 mm 2 m/s 694 mmHg 79%
    16:00 -15°C° 0 mm 2 m/s 694 mmHg 80%
    17:00 -15°C° 0 mm 2 m/s 694 mmHg 80%
    18:00 -14°C° 0 mm 2 m/s 694 mmHg 80%
    19:00 -14°C° 0 mm 2 m/s 694 mmHg 80%
    20:00 -14°C° 0 mm 2 m/s 694 mmHg 80%
    21:00 -14°C° 0 mm 2 m/s 693 mmHg 81%
    22:00 -14°C° 0 mm 2 m/s 693 mmHg 81%
    23:00 -14°C° 0 mm 2 m/s 693 mmHg 82%

    Depois de amanhã, 19 Dezembro, Terça-feira

    Tempo Temperatura Precipitação Vento Pressão Humidade
    00:00 -14°C° 0 mm 2 m/s 693 mmHg 83%
    01:00 -14°C° 0 mm 2 m/s 692 mmHg 84%
    02:00 -14°C° 0,1 mm 2 m/s 692 mmHg 85%
    03:00 -14°C° 0,1 mm 2 m/s 692 mmHg 86%
    04:00 -15°C° 0,1 mm 3 m/s 691 mmHg 87%
    05:00 -15°C° 0,1 mm 3 m/s 691 mmHg 86%
    06:00 -15°C° 0,1 mm 3 m/s 691 mmHg 86%
    07:00 -15°C° 0,1 mm 3 m/s 691 mmHg 85%
    08:00 -14°C° 0,1 mm 3 m/s 691 mmHg 85%
    09:00 -13°C° 0,1 mm 3 m/s 691 mmHg 84%
    10:00 -13°C° 0,1 mm 3 m/s 692 mmHg 83%
    11:00 -12°C° 0,1 mm 3 m/s 692 mmHg 82%
    12:00 -10°C° 0,1 mm 3 m/s 692 mmHg 81%
    13:00 -9°C° 0,1 mm 3 m/s 692 mmHg 80%
    14:00 -9°C° 0 mm 3 m/s 692 mmHg 80%
    15:00 -10°C° 0 mm 3 m/s 693 mmHg 81%
    16:00 -10°C° 0 mm 3 m/s 693 mmHg 81%
    17:00 -9°C° 0 mm 2 m/s 694 mmHg 81%
    18:00 -9°C° 0 mm 2 m/s 694 mmHg 82%
    19:00 -10°C° 0 mm 2 m/s 694 mmHg 82%
    20:00 -10°C° 0 mm 2 m/s 695 mmHg 81%
    21:00 -10°C° 0 mm 2 m/s 695 mmHg 81%
    22:00 -10°C° 0 mm 2 m/s 695 mmHg 80%
    23:00 -12°C° 0 mm 2 m/s 695 mmHg 79%

    20 Dezembro, Quarta-feira

    Tempo Temperatura Precipitação Vento Pressão Humidade
    00:00 -12°C° 0 mm 2 m/s 694 mmHg 79%
    01:00 -13°C° 0 mm 2 m/s 694 mmHg 78%
    02:00 -13°C° 0 mm 2 m/s 694 mmHg 77%
    03:00 -14°C° 0 mm 2 m/s 694 mmHg 77%
    04:00 -15°C° 0 mm 3 m/s 694 mmHg 77%
    05:00 -15°C° 0 mm 3 m/s 694 mmHg 76%
    06:00 -16°C° 0 mm 3 m/s 694 mmHg 76%
    07:00 -16°C° 0 mm 3 m/s 694 mmHg 76%
    08:00 -15°C° 0 mm 3 m/s 693 mmHg 75%
    09:00 -15°C° 0 mm 3 m/s 693 mmHg 75%
    10:00 -13°C° 0 mm 2 m/s 693 mmHg 74%
    11:00 -12°C° 0 mm 2 m/s 692 mmHg 74%
    12:00 -10°C° 0 mm 2 m/s 691 mmHg 74%
    13:00 -9°C° 0 mm 2 m/s 691 mmHg 73%
    14:00 -10°C° 0 mm 2 m/s 690 mmHg 74%
    15:00 -12°C° 0 mm 2 m/s 690 mmHg 75%
    16:00 -13°C° 0 mm 2 m/s 689 mmHg 76%
    17:00 -14°C° 0 mm 2 m/s 689 mmHg 76%
    18:00 -14°C° 0 mm 2 m/s 689 mmHg 76%
    19:00 -13°C° 0 mm 1 m/s 689 mmHg 76%
    20:00 -13°C° 0 mm 1 m/s 689 mmHg 75%
    21:00 -13°C° 0 mm 1 m/s 689 mmHg 75%
    22:00 -13°C° 0 mm 1 m/s 689 mmHg 75%
    23:00 -14°C° 0 mm 0 m/s 688 mmHg 75%

    21 Dezembro, Quinta-feira

    Tempo Temperatura Precipitação Vento Pressão Humidade
    00:00 -14°C° 0 mm 0 m/s 688 mmHg 75%
    01:00 -14°C° 0 mm 0 m/s 688 mmHg 75%
    02:00 -14°C° 0 mm 0 m/s 688 mmHg 76%
    03:00 -14°C° 0 mm 0 m/s 688 mmHg 76%
    04:00 -14°C° 0 mm 0 m/s 688 mmHg 76%
    05:00 -14°C° 0 mm 0 m/s 688 mmHg 76%
    06:00 -15°C° 0 mm 0 m/s 688 mmHg 76%
    07:00 -15°C° 0 mm 0 m/s 689 mmHg 76%
    08:00 -14°C° 0 mm 0 m/s 689 mmHg 76%
    09:00 -14°C° 0 mm 0 m/s 689 mmHg 75%
    10:00 -13°C° 0 mm 0 m/s 690 mmHg 74%
    11:00 -12°C° 0 mm 1 m/s 689 mmHg 75%
    12:00 -11°C° 0 mm 1 m/s 689 mmHg 75%
    13:00 -11°C° 0 mm 1 m/s 689 mmHg 75%
    14:00 -12°C° 0 mm 1 m/s 689 mmHg 76%
    15:00 -15°C° 0 mm 2 m/s 688 mmHg 77%
    16:00 -16°C° 0 mm 2 m/s 688 mmHg 78%
    17:00 -16°C° 0 mm 2 m/s 689 mmHg 78%
    18:00 -17°C° 0 mm 2 m/s 689 mmHg 78%
    19:00 -17°C° 0 mm 2 m/s 689 mmHg 78%
    20:00 -17°C° 0 mm 2 m/s 689 mmHg 78%
    21:00 -17°C° 0 mm 2 m/s 689 mmHg 78%
    22:00 -17°C° 0 mm 2 m/s 689 mmHg 78%
    23:00 -17°C° 0 mm 2 m/s 689 mmHg 78%

    22 Dezembro, Sexta-feira

    Tempo Temperatura Precipitação Vento Pressão Humidade
    00:00 -17°C° 0 mm 2 m/s 689 mmHg 78%
    01:00 -17°C° 0 mm 2 m/s 689 mmHg 77%
    02:00 -17°C° 0 mm 2 m/s 689 mmHg 77%
    03:00 -17°C° 0 mm 2 m/s 689 mmHg 77%
    04:00 -17°C° 0 mm 2 m/s 689 mmHg 77%
    05:00 -18°C° 0 mm 2 m/s 689 mmHg 77%
    06:00 -18°C° 0 mm 2 m/s 689 mmHg 77%
    07:00 -16°C° 0 mm 1 m/s 689 mmHg 77%
    08:00 -15°C° 0 mm 1 m/s 689 mmHg 77%
    09:00 -14°C° 0 mm 1 m/s 689 mmHg 76%
    10:00 -14°C° 0 mm 1 m/s 689 mmHg 76%
    11:00 -13°C° 0 mm 1 m/s 689 mmHg 76%
    12:00 -12°C° 0 mm 1 m/s 689 mmHg 75%
    13:00 -11°C° 0 mm 1 m/s 688 mmHg 75%
    14:00 -12°C° 0 mm 1 m/s 688 mmHg 76%
    15:00 -14°C° 0 mm 1 m/s 688 mmHg 77%
    16:00 -15°C° 0 mm 1 m/s 688 mmHg 78%
    17:00 -15°C° 0 mm 1 m/s 688 mmHg 79%
    18:00 -15°C° 0 mm 1 m/s 688 mmHg 79%
    19:00 -16°C° 0 mm 1 m/s 688 mmHg 79%
    20:00 -16°C° 0 mm 1 m/s 688 mmHg 79%
    21:00 -16°C° 0 mm 1 m/s 687 mmHg 80%
    22:00 -18°C° 0 mm 2 m/s 687 mmHg 80%
    23:00 -18°C° 0 mm 2 m/s 687 mmHg 80%
    Mostrar mais